User: anonymous   Login
Location: Unspecified
(0.0000°N, 0.0000°E)
Time: 14:49:18
(UTC+00:00)
Language:

AGILE - Orbit

View from above orbital plane
View from above orbital plane
View from above satellite
View from above satellite

Ground track
Ground track

The orbit data is extracted from the following two-line orbital elements,

1 31135U 07013A   17115.44200802 +.00005056 +00000-0 +13252-3 0  9991
2 31135 002.4671 159.7069 0013402 258.5005 101.3543 15.29549202555626
Epoch (UTC): 25 April 2017 10:36:29
Eccentricity: 0.0013402
inclination: 2.4671°
perigee height: 468 km
apogee height: 486 km
right ascension of ascending node: 159.7069°
argument of perigee: 258.5005°
revolutions per day: 15.29549202
mean anomaly at epoch: 101.3543°
orbit number at epoch: 55562

The dashed part of the orbit path shows where the satellite is in the earth's shadow,  

DLR